Location: Antoign�
(47.0844°N, 0.1131°W)
Time: 11:22:07
(UTC+00:00)

Okean 1-7 - Pass Details

Date: 03 March 2021
Orbit: 590 x 619 km, 82.5° (Epoch: 11 April)

Event Time Altitude Azimuth Distance (km) Brightness Sun altitude
Rises 19:34:33 0° 349° (N) 2,897 6.8 -18.7°
Reaches altitude 10° 19:36:48 10° 348° (NNW) 1,983 5.9 -19.1°
Maximum altitude 19:41:11 75° 264° (W) 637 3.2 -19.8°
Drops below altitude 10° 19:45:29 10° 179° (S) 1,949 5.5 -20.5°
Enters shadow 19:45:50 - 178° (S) 2,093 5.6 -20.6°
